Location: Lombard
(41.8800°N, 88.0080°W)
Time: 23:47:58
(UTC-05:00)

Tiros 1 - Pass Details

Date: 28 January 2023
Orbit: 628 x 662 km, 48.4° (Epoch: 20 March)

Event Time Altitude Azimuth Distance (km) Brightness Sun altitude
Rises 08:46:04 0° 294° (WNW) 2,961 9.9 14.4°
Reaches altitude 10° 08:48:30 10° 287° (WNW) 2,054 9.2 14.8°
Maximum altitude 08:52:55 39° 219° (SW) 971 8.3 15.4°
Drops below altitude 10° 08:57:20 10° 150° (SSE) 2,062 11.6 16.0°
Sets 08:59:48 0° 143° (SE) 2,974 12.3 16.3°
